| time (UTC) | temp F | wind direction | speed MPH | gust MPH | rain 1hr in | rain 24hr in | rain mn in | humidity % | barometer mb |
| 20260903051450 | 78 | 335 | 0.0 | 1.0 | 0.00 | 0.00 | 0.00 | 84 | 1023.9 |
| 20260903050947 | 78 | 52 | 1.0 | 1.0 | 0.00 | 0.00 | 0.00 | 84 | 1023.9 |
| 20260903050445 | 78 | 1 | 1.0 | 1.0 | 0.00 | 0.00 | 0.00 | 84 | 1023.7 |
| 20260903045940 | 78 | 112 | 2.0 | 2.0 | 0.00 | 0.00 | 0.00 | 85 | 1023.7 |
| 20260903045436 | 78 | 240 | 1.0 | 1.0 | 0.00 | 0.00 | 0.00 | 85 | 1023.7 |
| 20260903044932 | 78 | 9 | 1.0 | 1.0 | 0.00 | 0.00 | 0.00 | 85 | 1023.6 |
| 20260903044432 | 78 | 249 | 1.0 | 1.0 | 0.00 | 0.00 | 0.00 | 85 | 1023.6 |
| 20260903043929 | 78 | 301 | 0.0 | 1.0 | 0.00 | 0.00 | 0.00 | 85 | 1023.8 |
| 20260903043424 | 78 | 34 | 1.0 | 1.0 | 0.00 | 0.00 | 0.00 | 84 | 1023.5 |
| 20260903042922 | 78 | 102 | 1.0 | 1.0 | 0.00 | 0.00 | 0.00 | 84 | 1023.6 |
| 20260903042418 | 78 | 40 | 1.0 | 1.0 | 0.00 | 0.00 | 0.00 | 84 | 1023.7 |
| 20260903041914 | 78 | 54 | 0.0 | 1.0 | 0.00 | 0.00 | 0.00 | 84 | 1023.6 |
| 20260903041410 | 79 | 36 | 0.0 | 0.0 | 0.00 | 0.00 | 0.00 | 84 | 1023.7 |
| 20260903040906 | 79 | 3 | 1.0 | 1.0 | 0.00 | 0.00 | 0.00 | 83 | 1023.5 |
| 20260903040404 | 79 | 22 | 1.0 | 1.0 | 0.00 | 0.00 | 0.00 | 83 | 1023.6 |
| 20260903035901 | 79 | 54 | 1.0 | 1.0 | 0.00 | 0.00 | 0.00 | 83 | 1023.9 |
| 20260903035356 | 79 | 108 | 1.0 | 2.0 | 0.00 | 0.00 | 0.00 | 83 | 1023.6 |
| 20260903034851 | 79 | 164 | 2.0 | 2.0 | 0.00 | 0.00 | 0.00 | 83 | 1023.8 |
| 20260903034346 | 79 | 77 | 1.0 | 1.0 | 0.00 | 0.00 | 0.00 | 83 | 1023.7 |
| 20260903033841 | 80 | 31 | 1.0 | 1.0 | 0.00 | 0.00 | 0.00 | 83 | 1023.8 |
| 20260903033337 | 80 | 58 | 1.0 | 1.0 | 0.00 | 0.00 | 0.00 | 83 | 1023.8 |
| 20260903032836 | 80 | 0 | 0.0 | 0.0 | 0.00 | 0.00 | 0.00 | 82 | 1023.7 |
| 20260903032332 | 80 | 12 | 1.0 | 1.0 | 0.00 | 0.00 | 0.00 | 81 | 1023.6 |
| 20260903031827 | 81 | 149 | 2.0 | 2.0 | 0.00 | 0.00 | 0.00 | 80 | 1023.8 |
| 20260903031326 | 81 | 105 | 1.0 | 2.0 | 0.00 | 0.00 | 0.00 | 79 | 1023.9 |
| 20260903030822 | 81 | 137 | 2.0 | 2.0 | 0.00 | 0.00 | 0.00 | 78 | 1024.0 |
| 20260903030318 | 82 | 98 | 2.0 | 2.0 | 0.00 | 0.00 | 0.00 | 78 | 1023.9 |
| 20260903025814 | 82 | 91 | 1.0 | 1.0 | 0.00 | 0.00 | 0.00 | 77 | 1023.8 |
| 20260903025309 | 82 | 92 | 1.0 | 2.0 | 0.00 | 0.00 | 0.00 | 77 | 1023.9 |
| 20260903024803 | 82 | 143 | 1.0 | 2.0 | 0.00 | 0.00 | 0.00 | 76 | 1023.9 |
| 20260903024303 | 82 | 65 | 1.0 | 1.0 | 0.00 | 0.00 | 0.00 | 76 | 1023.7 |
| 20260903023759 | 82 | 84 | 1.0 | 2.0 | 0.00 | 0.00 | 0.00 | 75 | 1023.9 |
| 20260903023255 | 82 | 34 | 1.0 | 1.0 | 0.00 | 0.00 | 0.00 | 76 | 1024.0 |
| 20260903022754 | 82 | 74 | 2.0 | 2.0 | 0.00 | 0.00 | 0.00 | 75 | 1023.7 |
| 20260903022253 | 82 | 38 | 1.0 | 1.0 | 0.00 | 0.00 | 0.00 | 75 | 1024.0 |
| 20260903021753 | 82 | 43 | 0.0 | 0.0 | 0.00 | 0.00 | 0.00 | 76 | 1023.9 |
| 20260903021248 | 83 | 43 | 0.0 | 1.0 | 0.00 | 0.00 | 0.00 | 74 | 1024.0 |
| 20260903020743 | 83 | 43 | 1.0 | 1.0 | 0.00 | 0.00 | 0.00 | 72 | 1024.1 |
| 20260903020243 | 82 | 42 | 1.0 | 1.0 | 0.00 | 0.00 | 0.00 | 73 | 1024.0 |
| 20260903015738 | 83 | 41 | 0.0 | 0.0 | 0.00 | 0.00 | 0.00 | 73 | 1024.1 |
| 20260903015234 | 83 | 41 | 0.0 | 0.0 | 0.00 | 0.00 | 0.00 | 71 | 1024.0 |
| 20260903014729 | 83 | 39 | 1.0 | 1.0 | 0.00 | 0.00 | 0.00 | 71 | 1024.1 |
| 20260903014228 | 82 | 63 | 1.0 | 1.0 | 0.00 | 0.00 | 0.00 | 73 | 1024.0 |
| 20260903013724 | 82 | 15 | 1.0 | 1.0 | 0.00 | 0.00 | 0.00 | 75 | 1023.9 |
| 20260903013223 | 82 | 43 | 1.0 | 1.0 | 0.00 | 0.00 | 0.00 | 75 | 1023.8 |
| 20260903012721 | 82 | 50 | 1.0 | 1.0 | 0.00 | 0.00 | 0.00 | 75 | 1024.0 |
| 20260903012221 | 84 | 49 | 0.0 | 0.0 | 0.00 | 0.00 | 0.00 | 71 | 1023.7 |
| 20260903011716 | 84 | 49 | 0.0 | 0.0 | 0.00 | 0.00 | 0.00 | 69 | 1023.4 |
| 20260903011210 | 85 | 49 | 0.0 | 0.0 | 0.00 | 0.00 | 0.00 | 67 | 1023.8 |
| 20260903010706 | 85 | 49 | 0.0 | 0.0 | 0.00 | 0.00 | 0.00 | 66 | 1023.5 |
| 20260903010205 | 85 | 49 | 0.0 | 0.0 | 0.00 | 0.00 | 0.00 | 67 | 1023.5 |
| 20260903005704 | 85 | 49 | 0.0 | 0.0 | 0.00 | 0.00 | 0.00 | 68 | 1023.5 |
| 20260903005159 | 85 | 49 | 0.0 | 0.0 | 0.00 | 0.00 | 0.00 | 67 | 1023.6 |
| 20260903004655 | 85 | 49 | 1.0 | 1.0 | 0.00 | 0.00 | 0.00 | 68 | 1023.4 |
| 20260903004149 | 85 | 49 | 0.0 | 0.0 | 0.00 | 0.00 | 0.00 | 66 | 1023.3 |
| 20260903003645 | 85 | 49 | 0.0 | 0.0 | 0.00 | 0.00 | 0.00 | 67 | 1023.3 |
| 20260903003140 | 86 | 49 | 0.0 | 0.0 | 0.00 | 0.00 | 0.00 | 67 | 1023.2 |
| 20260903002636 | 85 | 49 | 0.0 | 0.0 | 0.00 | 0.00 | 0.00 | 68 | 1023.3 |
| 20260903002131 | 86 | 49 | 0.0 | 0.0 | 0.00 | 0.00 | 0.00 | 68 | 1023.4 |
| 20260903001625 | 86 | 49 | 0.0 | 0.0 | 0.00 | 0.00 | 0.00 | 68 | 1023.3 |
| 20260903001125 | 87 | 46 | 1.0 | 1.0 | 0.00 | 0.00 | 0.00 | 66 | 1023.1 |
| 20260903000621 | 89 | 4 | 0.0 | 1.0 | 0.00 | 0.00 | 0.00 | 63 | 1023.3 |
| 20260903000120 | 90 | 2 | 0.0 | 0.0 | 0.00 | 0.00 | 0.00 | 61 | 1023.2 |
| 20260902235618 | 92 | 6 | 0.0 | 0.0 | 0.00 | 0.00 | 0.00 | 60 | 1023.4 |
| 20260902235114 | 92 | 319 | 0.0 | 0.0 | 0.00 | 0.00 | 0.00 | 57 | 1023.4 |
| 20260902234608 | 93 | 319 | 0.0 | 0.0 | 0.00 | 0.00 | 0.00 | 55 | 1023.5 |
| 20260902234106 | 94 | 319 | 0.0 | 0.0 | 0.00 | 0.00 | 0.00 | 54 | 1023.3 |
| 20260902233602 | 95 | 319 | 0.0 | 0.0 | 0.00 | 0.00 | 0.00 | 52 | 1023.4 |
| 20260902233056 | 96 | 319 | 0.0 | 0.0 | 0.00 | 0.00 | 0.00 | 52 | 1023.5 |
| 20260902232555 | 95 | 319 | 0.0 | 0.0 | 0.00 | 0.00 | 0.00 | 52 | 1023.5 |
| 20260902232049 | 95 | 319 | 0.0 | 0.0 | 0.00 | 0.00 | 0.00 | 52 | 1023.5 |
| 20260902231544 | 95 | 319 | 0.0 | 1.0 | 0.00 | 0.00 | 0.00 | 53 | 1023.5 |
| 20260902231038 | 95 | 319 | 0.0 | 1.0 | 0.00 | 0.00 | 0.00 | 52 | 1023.4 |
| 20260902230533 | 95 | 324 | 1.0 | 1.0 | 0.00 | 0.00 | 0.00 | 53 | 1023.5 |
| 20260902230032 | 94 | 314 | 2.0 | 2.0 | 0.00 | 0.00 | 0.00 | 53 | 1023.5 |
| 20260902225528 | 93 | 299 | 2.0 | 2.0 | 0.00 | 0.00 | 0.00 | 54 | 1023.6 |
| 20260902225027 | 93 | 312 | 1.0 | 2.0 | 0.00 | 0.00 | 0.00 | 54 | 1023.6 |
| 20260902224526 | 94 | 308 | 2.0 | 2.0 | 0.00 | 0.00 | 0.00 | 54 | 1023.7 |
| 20260902224022 | 94 | 314 | 1.0 | 2.0 | 0.00 | 0.00 | 0.00 | 54 | 1023.6 |
| 20260902223518 | 94 | 318 | 2.0 | 2.0 | 0.00 | 0.00 | 0.00 | 51 | 1023.6 |
| 20260902223017 | 95 | 252 | 2.0 | 2.0 | 0.00 | 0.00 | 0.00 | 52 | 1023.5 |
| 20260902222516 | 94 | 263 | 2.0 | 2.0 | 0.00 | 0.00 | 0.00 | 53 | 1023.5 |
| 20260902222015 | 94 | 281 | 2.0 | 2.0 | 0.00 | 0.00 | 0.00 | 52 | 1023.5 |
| 20260902221514 | 93 | 313 | 5.0 | 6.0 | 0.00 | 0.00 | 0.00 | 53 | 1023.7 |
| 20260902221010 | 94 | 325 | 3.0 | 3.0 | 0.00 | 0.00 | 0.00 | 51 | 1023.8 |
| 20260902220505 | 94 | 268 | 4.0 | 5.0 | 0.00 | 0.00 | 0.00 | 51 | 1023.5 |
| 20260902215959 | 95 | 250 | 3.0 | 5.0 | 0.00 | 0.00 | 0.00 | 51 | 1023.9 |
| 20260902215455 | 95 | 302 | 2.0 | 2.0 | 0.00 | 0.00 | 0.00 | 54 | 1023.6 |
| 20260902214946 | 93 | 269 | 5.0 | 6.0 | 0.00 | 0.00 | 0.00 | 52 | 1023.8 |
| 20260902214445 | 93 | 311 | 5.0 | 7.0 | 0.00 | 0.00 | 0.00 | 53 | 1023.8 |
| 20260902213944 | 93 | 319 | 7.0 | 8.0 | 0.00 | 0.00 | 0.00 | 53 | 1023.6 |
| 20260902213441 | 94 | 324 | 4.0 | 6.0 | 0.00 | 0.00 | 0.00 | 53 | 1023.5 |
| 20260902212939 | 94 | 269 | 4.0 | 5.0 | 0.00 | 0.00 | 0.00 | 53 | 1023.6 |
| 20260902212436 | 94 | 317 | 4.0 | 5.0 | 0.00 | 0.00 | 0.00 | 53 | 1023.8 |
| 20260902211932 | 95 | 313 | 3.0 | 6.0 | 0.00 | 0.00 | 0.00 | 52 | 1023.7 |
| 20260902211428 | 95 | 297 | 3.0 | 5.0 | 0.00 | 0.00 | 0.00 | 51 | 1023.7 |
| 20260902210923 | 95 | 305 | 5.0 | 6.0 | 0.00 | 0.00 | 0.00 | 53 | 1023.9 |
| 20260902210422 | 96 | 283 | 5.0 | 6.0 | 0.00 | 0.00 | 0.00 | 54 | 1023.8 |
| 20260902205915 | 95 | 230 | 3.0 | 3.0 | 0.00 | 0.00 | 0.00 | 51 | 1023.9 |
| 20260902205410 | 95 | 302 | 4.0 | 6.0 | 0.00 | 0.00 | 0.00 | 52 | 1023.8 |
| 20260902204906 | 95 | 309 | 3.0 | 5.0 | 0.00 | 0.00 | 0.00 | 53 | 1023.9 |
| 20260902204405 | 95 | 309 | 3.0 | 3.0 | 0.00 | 0.00 | 0.00 | 51 | 1023.9 |
| 20260902203901 | 93 | 317 | 2.0 | 2.0 | 0.00 | 0.00 | 0.00 | 53 | 1023.9 |
| 20260902203356 | 95 | 304 | 3.0 | 5.0 | 0.00 | 0.00 | 0.00 | 50 | 1023.8 |
| 20260902202855 | 95 | 302 | 3.0 | 5.0 | 0.00 | 0.00 | 0.00 | 51 | 1023.9 |
| 20260902202351 | 96 | 298 | 5.0 | 7.0 | 0.00 | 0.00 | 0.00 | 51 | 1023.9 |
| 20260902201848 | 96 | 283 | 3.0 | 3.0 | 0.00 | 0.00 | 0.00 | 49 | 1024.0 |
| 20260902201347 | 94 | 317 | 3.0 | 3.0 | 0.00 | 0.00 | 0.00 | 52 | 1024.2 |
| 20260902200842 | 95 | 312 | 6.0 | 9.0 | 0.00 | 0.00 | 0.00 | 49 | 1024.2 |
| 20260902200338 | 94 | 271 | 3.0 | 5.0 | 0.00 | 0.00 | 0.00 | 50 | 1024.4 |
| 20260902195833 | 94 | 294 | 5.0 | 6.0 | 0.00 | 0.00 | 0.00 | 50 | 1024.4 |
| 20260902195332 | 94 | 318 | 3.0 | 3.0 | 0.00 | 0.00 | 0.00 | 54 | 1024.4 |
| 20260902194827 | 94 | 302 | 4.0 | 5.0 | 0.00 | 0.00 | 0.00 | 52 | 1024.7 |
| 20260902194322 | 94 | 304 | 6.0 | 8.0 | 0.00 | 0.00 | 0.00 | 51 | 1024.4 |
| 20260902193818 | 95 | 310 | 5.0 | 6.0 | 0.00 | 0.00 | 0.00 | 52 | 1024.5 |
| 20260902193314 | 95 | 277 | 3.0 | 3.0 | 0.00 | 0.00 | 0.00 | 48 | 1024.7 |
| 20260902192812 | 94 | 291 | 7.0 | 8.0 | 0.00 | 0.00 | 0.00 | 50 | 1024.6 |
| 20260902192311 | 93 | 301 | 2.0 | 2.0 | 0.00 | 0.00 | 0.00 | 54 | 1024.8 |
| 20260902191811 | 94 | 286 | 4.0 | 5.0 | 0.00 | 0.00 | 0.00 | 56 | 1024.5 |
| 20260902191306 | 95 | 279 | 3.0 | 3.0 | 0.00 | 0.00 | 0.00 | 54 | 1024.8 |
| 20260902190806 | 94 | 326 | 2.0 | 2.0 | 0.00 | 0.00 | 0.00 | 51 | 1024.8 |
| 20260902190305 | 93 | 289 | 5.0 | 7.0 | 0.00 | 0.00 | 0.00 | 54 | 1024.8 |
| 20260902185802 | 95 | 243 | 2.0 | 2.0 | 0.00 | 0.00 | 0.00 | 51 | 1024.7 |
| 20260902185257 | 93 | 321 | 2.0 | 3.0 | 0.00 | 0.00 | 0.00 | 54 | 1024.8 |
| 20260902184753 | 94 | 317 | 7.0 | 8.0 | 0.00 | 0.00 | 0.00 | 54 | 1025.2 |
| 20260902184248 | 94 | 214 | 4.0 | 5.0 | 0.00 | 0.00 | 0.00 | 53 | 1025.2 |
| 20260902183744 | 95 | 267 | 4.0 | 6.0 | 0.00 | 0.00 | 0.00 | 56 | 1025.2 |
| 20260902183240 | 95 | 215 | 3.0 | 6.0 | 0.00 | 0.00 | 0.00 | 52 | 1025.2 |
| 20260902182736 | 94 | 305 | 3.0 | 3.0 | 0.00 | 0.00 | 0.00 | 52 | 1025.1 |
| 20260902182232 | 94 | 296 | 5.0 | 5.0 | 0.00 | 0.00 | 0.00 | 56 | 1025.3 |
| 20260902181728 | 93 | 215 | 3.0 | 3.0 | 0.00 | 0.00 | 0.00 | 54 | 1025.3 |
| 20260902181228 | 94 | 309 | 7.0 | 7.0 | 0.00 | 0.00 | 0.00 | 53 | 1025.3 |
| 20260902180723 | 94 | 292 | 6.0 | 7.0 | 0.00 | 0.00 | 0.00 | 53 | 1025.5 |
| 20260902180219 | 93 | 249 | 5.0 | 5.0 | 0.00 | 0.00 | 0.00 | 52 | 1025.5 |
| 20260902175719 | 94 | 295 | 3.0 | 5.0 | 0.00 | 0.00 | 0.00 | 54 | 1025.5 |
| 20260902175215 | 93 | 296 | 5.0 | 7.0 | 0.00 | 0.00 | 0.00 | 53 | 1025.5 |
| 20260902174710 | 93 | 319 | 3.0 | 3.0 | 0.00 | 0.00 | 0.00 | 53 | 1025.7 |
| 20260902174206 | 93 | 297 | 5.0 | 6.0 | 0.00 | 0.00 | 0.00 | 59 | 1025.7 |
| 20260902173701 | 94 | 238 | 3.0 | 5.0 | 0.00 | 0.00 | 0.00 | 51 | 1025.8 |
| 20260902173156 | 93 | 8 | 4.0 | 5.0 | 0.00 | 0.00 | 0.00 | 52 | 1025.8 |
| 20260902172651 | 93 | 307 | 7.0 | 8.0 | 0.00 | 0.00 | 0.00 | 53 | 1025.7 |
| 20260902172150 | 93 | 29 | 0.0 | 0.0 | 0.00 | 0.00 | 0.00 | 53 | 1025.8 |
| 20260902171645 | 93 | 295 | 5.0 | 5.0 | 0.00 | 0.00 | 0.00 | 52 | 1025.8 |
| 20260902171141 | 93 | 247 | 4.0 | 6.0 | 0.00 | 0.00 | 0.00 | 60 | 1026.0 |
| 20260902170637 | 92 | 235 | 4.0 | 5.0 | 0.00 | 0.00 | 0.00 | 57 | 1026.0 |
| 20260902170132 | 92 | 308 | 5.0 | 6.0 | 0.00 | 0.00 | 0.00 | 57 | 1026.0 |
| 20260902165627 | 93 | 328 | 1.0 | 1.0 | 0.00 | 0.00 | 0.00 | 59 | 1026.0 |
| 20260902165126 | 92 | 319 | 1.0 | 1.0 | 0.00 | 0.00 | 0.00 | 60 | 1026.0 |
| 20260902164622 | 92 | 286 | 3.0 | 6.0 | 0.00 | 0.00 | 0.00 | 58 | 1025.9 |
| 20260902164120 | 92 | 340 | 1.0 | 1.0 | 0.00 | 0.00 | 0.00 | 58 | 1026.1 |
| 20260902163616 | 92 | 337 | 0.0 | 1.0 | 0.00 | 0.00 | 0.00 | 60 | 1026.3 |
| 20260902163115 | 91 | 270 | 5.0 | 5.0 | 0.00 | 0.00 | 0.00 | 63 | 1026.4 |
| 20260902162614 | 91 | 314 | 4.0 | 5.0 | 0.00 | 0.00 | 0.00 | 63 | 1026.6 |
| 20260902162109 | 91 | 322 | 3.0 | 3.0 | 0.00 | 0.00 | 0.00 | 62 | 1026.5 |
| 20260902161604 | 91 | 291 | 2.0 | 2.0 | 0.00 | 0.00 | 0.00 | 61 | 1026.7 |
| 20260902161100 | 90 | 326 | 3.0 | 3.0 | 0.00 | 0.00 | 0.00 | 62 | 1026.6 |
| 20260902160556 | 90 | 312 | 5.0 | 5.0 | 0.00 | 0.00 | 0.00 | 64 | 1026.5 |
| 20260902160051 | 90 | 282 | 5.0 | 6.0 | 0.00 | 0.00 | 0.00 | 64 | 1026.6 |
| 20260902155544 | 89 | 288 | 2.0 | 2.0 | 0.00 | 0.00 | 0.00 | 66 | 1026.7 |
| 20260902155043 | 89 | 285 | 2.0 | 2.0 | 0.00 | 0.00 | 0.00 | 65 | 1026.5 |
| 20260902154538 | 90 | 318 | 2.0 | 3.0 | 0.00 | 0.00 | 0.00 | 67 | 1026.8 |
| 20260902154038 | 90 | 316 | 2.0 | 2.0 | 0.00 | 0.00 | 0.00 | 66 | 1026.8 |
| 20260902153537 | 90 | 333 | 0.0 | 1.0 | 0.00 | 0.00 | 0.00 | 65 | 1026.6 |
| 20260902153033 | 88 | 305 | 1.0 | 2.0 | 0.00 | 0.00 | 0.00 | 66 | 1026.7 |
| 20260902152529 | 89 | 279 | 2.0 | 3.0 | 0.00 | 0.00 | 0.00 | 67 | 1026.8 |
| 20260902152024 | 88 | 317 | 3.0 | 5.0 | 0.00 | 0.00 | 0.00 | 69 | 1026.7 |
| 20260902151520 | 88 | 266 | 5.0 | 6.0 | 0.00 | 0.00 | 0.00 | 69 | 1026.5 |
| 20260902151019 | 87 | 315 | 5.0 | 6.0 | 0.00 | 0.00 | 0.00 | 68 | 1026.6 |
| 20260902150515 | 87 | 357 | 1.0 | 1.0 | 0.00 | 0.00 | 0.00 | 69 | 1026.6 |
| 20260902150010 | 87 | 303 | 2.0 | 2.0 | 0.00 | 0.00 | 0.00 | 69 | 1026.7 |
| 20260902145505 | 87 | 299 | 3.0 | 3.0 | 0.00 | 0.00 | 0.00 | 70 | 1026.6 |
| 20260902145004 | 87 | 274 | 3.0 | 3.0 | 0.00 | 0.00 | 0.00 | 70 | 1026.7 |
| 20260902144501 | 87 | 248 | 2.0 | 2.0 | 0.00 | 0.00 | 0.00 | 72 | 1026.4 |
| 20260902143956 | 86 | 232 | 3.0 | 3.0 | 0.00 | 0.00 | 0.00 | 72 | 1026.5 |
| 20260902143452 | 85 | 295 | 4.0 | 6.0 | 0.00 | 0.00 | 0.00 | 71 | 1026.4 |
| 20260902142947 | 85 | 280 | 3.0 | 3.0 | 0.00 | 0.00 | 0.00 | 72 | 1026.7 |
| 20260902142443 | 85 | 286 | 3.0 | 3.0 | 0.00 | 0.00 | 0.00 | 73 | 1026.5 |
| 20260902141943 | 85 | 247 | 4.0 | 6.0 | 0.00 | 0.00 | 0.00 | 73 | 1026.6 |
| 20260902141438 | 85 | 205 | 4.0 | 5.0 | 0.00 | 0.00 | 0.00 | 72 | 1026.8 |
| 20260902140937 | 84 | 317 | 6.0 | 8.0 | 0.00 | 0.00 | 0.00 | 73 | 1026.7 |
| 20260902140433 | 84 | 282 | 5.0 | 6.0 | 0.00 | 0.00 | 0.00 | 75 | 1026.4 |
| 20260902135932 | 84 | 282 | 6.0 | 7.0 | 0.00 | 0.00 | 0.00 | 73 | 1026.4 |
| 20260902135429 | 84 | 279 | 3.0 | 3.0 | 0.00 | 0.00 | 0.00 | 76 | 1026.5 |
| 20260902134927 | 83 | 222 | 4.0 | 6.0 | 0.00 | 0.00 | 0.00 | 77 | 1026.4 |
| 20260902134424 | 82 | 271 | 3.0 | 3.0 | 0.00 | 0.00 | 0.00 | 81 | 1026.2 |
| 20260902133919 | 81 | 317 | 2.0 | 2.0 | 0.00 | 0.00 | 0.00 | 84 | 1026.6 |
| 20260902133418 | 80 | 310 | 1.0 | 2.0 | 0.00 | 0.00 | 0.00 | 86 | 1026.5 |
| 20260902132913 | 80 | 319 | 0.0 | 0.0 | 0.00 | 0.00 | 0.00 | 87 | 1026.6 |
| 20260902132409 | 80 | 314 | 0.0 | 1.0 | 0.00 | 0.00 | 0.00 | 87 | 1026.5 |
| 20260902131903 | 79 | 236 | 3.0 | 3.0 | 0.00 | 0.00 | 0.00 | 86 | 1026.5 |
| 20260902131401 | 79 | 217 | 3.0 | 5.0 | 0.00 | 0.00 | 0.00 | 85 | 1026.4 |
| 20260902130859 | 78 | 336 | 0.0 | 0.0 | 0.00 | 0.00 | 0.00 | 87 | 1026.3 |
| 20260902130356 | 78 | 302 | 1.0 | 1.0 | 0.00 | 0.00 | 0.00 | 88 | 1026.4 |
| 20260902125851 | 77 | 245 | 3.0 | 3.0 | 0.00 | 0.00 | 0.00 | 88 | 1026.3 |
| 20260902125347 | 76 | 284 | 0.0 | 1.0 | 0.00 | 0.00 | 0.00 | 90 | 1026.2 |
| 20260902124843 | 76 | 231 | 1.0 | 1.0 | 0.00 | 0.00 | 0.00 | 91 | 1026.2 |
| 20260902124339 | 75 | 255 | 0.0 | 1.0 | 0.00 | 0.00 | 0.00 | 92 | 1026.1 |
| 20260902123839 | 75 | 344 | 0.0 | 0.0 | 0.00 | 0.00 | 0.00 | 93 | 1026.2 |
| 20260902123335 | 75 | 334 | 0.0 | 1.0 | 0.00 | 0.00 | 0.00 | 94 | 1026.2 |
| 20260902122833 | 74 | 316 | 0.0 | 1.0 | 0.00 | 0.00 | 0.00 | 95 | 1026.0 |
| 20260902122330 | 74 | 275 | 1.0 | 1.0 | 0.00 | 0.00 | 0.00 | 95 | 1026.2 |
| 20260902121830 | 73 | 349 | 1.0 | 1.0 | 0.00 | 0.00 | 0.00 | 95 | 1026.2 |
| 20260902121325 | 73 | 330 | 0.0 | 0.0 | 0.00 | 0.00 | 0.00 | 96 | 1026.4 |
| 20260902120820 | 73 | 118 | 1.0 | 1.0 | 0.00 | 0.00 | 0.00 | 96 | 1026.1 |
| 20260902120316 | 72 | 347 | 0.0 | 0.0 | 0.00 | 0.00 | 0.00 | 97 | 1026.3 |
| 20260902115810 | 72 | 348 | 0.0 | 0.0 | 0.00 | 0.00 | 0.00 | 97 | 1026.1 |
| 20260902115309 | 72 | 350 | 0.0 | 0.0 | 0.00 | 0.00 | 0.00 | 98 | 1026.2 |
| 20260902114803 | 71 | 36 | 0.0 | 1.0 | 0.00 | 0.00 | 0.00 | 99 | 1026.1 |
| 20260902114300 | 71 | 246 | 0.0 | 1.0 | 0.00 | 0.00 | 0.00 | 99 | 1026.0 |
| 20260902113754 | 70 | 8 | 0.0 | 1.0 | 0.00 | 0.00 | 0.00 | 99 | 1025.7 |
| 20260902113249 | 70 | 7 | 0.0 | 0.0 | 0.00 | 0.00 | 0.00 | 99 | 1025.7 |
| 20260902112748 | 70 | 7 | 0.0 | 0.0 | 0.00 | 0.00 | 0.00 | 99 | 1025.7 |
| 20260902112246 | 69 | 7 | 0.0 | 0.0 | 0.00 | 0.00 | 0.00 | 99 | 1025.8 |
| 20260902111740 | 70 | 7 | 0.0 | 0.0 | 0.00 | 0.00 | 0.00 | 99 | 1025.7 |
| 20260902111237 | 70 | 7 | 0.0 | 0.0 | 0.00 | 0.00 | 0.00 | 99 | 1025.4 |
| 20260902110732 | 70 | 8 | 0.0 | 0.0 | 0.00 | 0.00 | 0.00 | 99 | 1025.7 |
| 20260902110228 | 70 | 8 | 0.0 | 0.0 | 0.00 | 0.00 | 0.00 | 99 | 1025.7 |
| 20260902105727 | 70 | 7 | 0.0 | 0.0 | 0.00 | 0.00 | 0.00 | 99 | 1025.6 |
| 20260902105222 | 69 | 7 | 0.0 | 0.0 | 0.00 | 0.00 | 0.00 | 99 | 1025.7 |
| 20260902104718 | 70 | 7 | 0.0 | 0.0 | 0.00 | 0.00 | 0.00 | 99 | 1025.7 |
| 20260902104214 | 70 | 7 | 0.0 | 0.0 | 0.00 | 0.00 | 0.00 | 99 | 1025.4 |
| 20260902103713 | 70 | 7 | 0.0 | 0.0 | 0.00 | 0.00 | 0.00 | 99 | 1025.5 |
| 20260902103208 | 70 | 7 | 0.0 | 0.0 | 0.00 | 0.00 | 0.00 | 99 | 1025.4 |
| 20260902102703 | 70 | 7 | 0.0 | 0.0 | 0.00 | 0.00 | 0.00 | 99 | 1025.4 |
| 20260902102201 | 70 | 7 | 0.0 | 0.0 | 0.00 | 0.00 | 0.00 | 99 | 1025.4 |
| 20260902101656 | 70 | 7 | 0.0 | 0.0 | 0.00 | 0.00 | 0.00 | 99 | 1025.4 |
| 20260902101155 | 70 | 7 | 0.0 | 0.0 | 0.00 | 0.00 | 0.00 | 99 | 1025.2 |
| 20260902100650 | 70 | 7 | 0.0 | 0.0 | 0.00 | 0.00 | 0.00 | 98 | 1025.2 |
| 20260902100145 | 71 | 7 | 0.0 | 0.0 | 0.00 | 0.00 | 0.00 | 98 | 1025.0 |
| 20260902095644 | 71 | 7 | 0.0 | 0.0 | 0.00 | 0.00 | 0.00 | 99 | 1025.3 |
| 20260902095144 | 71 | 359 | 0.0 | 0.0 | 0.00 | 0.00 | 0.00 | 99 | 1025.1 |
| 20260902094639 | 71 | 357 | 0.0 | 0.0 | 0.00 | 0.00 | 0.00 | 99 | 1025.2 |
| 20260902094135 | 71 | 359 | 0.0 | 0.0 | 0.00 | 0.00 | 0.00 | 99 | 1025.1 |
| 20260902093635 | 71 | 1 | 0.0 | 0.0 | 0.00 | 0.00 | 0.00 | 99 | 1025.1 |
| 20260902093130 | 71 | 1 | 0.0 | 0.0 | 0.00 | 0.00 | 0.00 | 99 | 1025.3 |
| 20260902092630 | 71 | 1 | 0.0 | 0.0 | 0.00 | 0.00 | 0.00 | 99 | 1025.2 |
| 20260902092125 | 71 | 1 | 0.0 | 0.0 | 0.00 | 0.00 | 0.00 | 98 | 1025.2 |
| 20260902091620 | 71 | 1 | 0.0 | 0.0 | 0.00 | 0.00 | 0.00 | 98 | 1025.1 |
| 20260902091117 | 71 | 1 | 0.0 | 0.0 | 0.00 | 0.00 | 0.00 | 97 | 1025.2 |
| 20260902090612 | 71 | 1 | 0.0 | 0.0 | 0.00 | 0.00 | 0.00 | 97 | 1025.0 |
| 20260902090111 | 72 | 1 | 0.0 | 0.0 | 0.00 | 0.00 | 0.00 | 97 | 1025.2 |
| 20260902085612 | 72 | 1 | 0.0 | 0.0 | 0.00 | 0.00 | 0.00 | 97 | 1025.0 |
| 20260902085106 | 72 | 0 | 0.0 | 0.0 | 0.00 | 0.00 | 0.00 | 97 | 1025.1 |
| 20260902084603 | 72 | 357 | 0.0 | 0.0 | 0.00 | 0.00 | 0.00 | 96 | 1024.6 |
| 20260902084059 | 72 | 357 | 0.0 | 0.0 | 0.00 | 0.00 | 0.00 | 96 | 1024.6 |
| 20260902083554 | 72 | 353 | 0.0 | 0.0 | 0.00 | 0.00 | 0.00 | 96 | 1024.7 |
| 20260902083053 | 73 | 350 | 0.0 | 0.0 | 0.00 | 0.00 | 0.00 | 96 | 1024.7 |
| 20260902082549 | 73 | 0 | 0.0 | 0.0 | 0.00 | 0.00 | 0.00 | 95 | 1024.6 |
| 20260902082045 | 73 | 34 | 1.0 | 1.0 | 0.00 | 0.00 | 0.00 | 95 | 1024.5 |
| 20260902081542 | 73 | 63 | 1.0 | 1.0 | 0.00 | 0.00 | 0.00 | 96 | 1024.7 |
| 20260902081041 | 73 | 11 | 0.0 | 0.0 | 0.00 | 0.00 | 0.00 | 96 | 1024.8 |
| 20260902080537 | 73 | 354 | 0.0 | 0.0 | 0.00 | 0.00 | 0.00 | 96 | 1024.6 |
| 20260902080033 | 73 | 43 | 1.0 | 1.0 | 0.00 | 0.00 | 0.00 | 97 | 1024.5 |
| 20260902075533 | 72 | 42 | 0.0 | 0.0 | 0.00 | 0.00 | 0.00 | 98 | 1024.5 |
| 20260902075029 | 72 | 7 | 0.0 | 0.0 | 0.00 | 0.00 | 0.00 | 98 | 1024.8 |
| 20260902074525 | 72 | 7 | 0.0 | 0.0 | 0.00 | 0.00 | 0.00 | 98 | 1024.8 |
| 20260902074024 | 72 | 8 | 0.0 | 0.0 | 0.00 | 0.00 | 0.00 | 99 | 1024.6 |
| 20260902073520 | 72 | 357 | 0.0 | 0.0 | 0.00 | 0.00 | 0.00 | 99 | 1024.5 |
| 20260902073017 | 71 | 348 | 0.0 | 0.0 | 0.00 | 0.00 | 0.00 | 99 | 1025.0 |
| 20260902072512 | 71 | 347 | 0.0 | 0.0 | 0.00 | 0.00 | 0.00 | 99 | 1025.0 |
| 20260902072009 | 71 | 347 | 0.0 | 0.0 | 0.00 | 0.00 | 0.00 | 99 | 1024.5 |
| 20260902071508 | 71 | 347 | 0.0 | 0.0 | 0.00 | 0.00 | 0.00 | 98 | 1024.7 |
| 20260902071005 | 71 | 347 | 0.0 | 0.0 | 0.00 | 0.00 | 0.00 | 98 | 1024.6 |
| 20260902070500 | 72 | 347 | 0.0 | 0.0 | 0.00 | 0.00 | 0.00 | 98 | 1024.7 |
| 20260902065959 | 72 | 347 | 0.0 | 0.0 | 0.00 | 0.00 | 0.00 | 98 | 1024.8 |
| 20260902065454 | 72 | 347 | 0.0 | 0.0 | 0.00 | 0.00 | 0.00 | 97 | 1024.7 |
| 20260902064948 | 72 | 347 | 0.0 | 0.0 | 0.00 | 0.00 | 0.00 | 97 | 1024.6 |
| 20260902064444 | 73 | 347 | 0.0 | 0.0 | 0.00 | 0.00 | 0.00 | 97 | 1024.7 |
| 20260902063940 | 73 | 348 | 0.0 | 0.0 | 0.00 | 0.00 | 0.00 | 97 | 1024.8 |
| 20260902063439 | 73 | 347 | 0.0 | 0.0 | 0.00 | 0.00 | 0.00 | 96 | 1024.4 |
| 20260902062935 | 73 | 347 | 0.0 | 0.0 | 0.00 | 0.00 | 0.00 | 96 | 1024.8 |
| 20260902062434 | 73 | 347 | 0.0 | 0.0 | 0.00 | 0.00 | 0.00 | 96 | 1024.8 |
| 20260902061929 | 73 | 349 | 0.0 | 0.0 | 0.00 | 0.00 | 0.00 | 96 | 1025.1 |
| 20260902061424 | 74 | 9 | 0.0 | 0.0 | 0.00 | 0.00 | 0.00 | 96 | 1024.8 |
| 20260902060920 | 74 | 46 | 1.0 | 1.0 | 0.00 | 0.00 | 0.00 | 96 | 1024.8 |
| 20260902060416 | 74 | 14 | 0.0 | 0.0 | 0.00 | 0.00 | 0.00 | 95 | 1024.8 |
| 20260902055911 | 74 | 14 | 0.0 | 0.0 | 0.00 | 0.00 | 0.00 | 95 | 1024.8 |
| 20260902055408 | 74 | 359 | 0.0 | 0.0 | 0.00 | 0.00 | 0.00 | 94 | 1024.7 |
| 20260902054903 | 74 | 359 | 0.0 | 0.0 | 0.00 | 0.00 | 0.00 | 94 | 1024.7 |
| 20260902054358 | 74 | 359 | 0.0 | 0.0 | 0.00 | 0.00 | 0.00 | 93 | 1025.0 |
| 20260902053853 | 75 | 359 | 0.0 | 0.0 | 0.00 | 0.00 | 0.00 | 93 | 1024.7 |
| 20260902053348 | 75 | 352 | 0.0 | 0.0 | 0.00 | 0.00 | 0.00 | 92 | 1024.8 |
| 20260902052847 | 75 | 352 | 0.0 | 0.0 | 0.00 | 0.00 | 0.00 | 92 | 1025.0 |
| 20260902052343 | 75 | 18 | 0.0 | 0.0 | 0.00 | 0.00 | 0.00 | 92 | 1024.8 |
| 20260902051838 | 75 | 18 | 0.0 | 0.0 | 0.00 | 0.00 | 0.00 | 91 | 1024.6 |